Flag for United Kingdom Weather past 2 weeks in Cambridge, England, United Kingdom

Now
75 °F

Passing clouds.


Feels Like: 78 °F
Forecast: 56 / 67 °F
Wind: 13 mph from Southwest

Location: Cambridge Airport

Current Time: Jul 4, 2015 at 10:09:41 PM

Latest Report: Jul 4, 2015 at 7:20 PM


Visibility: N/A

Pressure: 30.07 "Hg

Humidity: 47%

Dew point: 54 °F

Location of CambridgeLocation

Historic Weather in Cambridge — Graph

°F

Cambridge temperature yesterday

Maximum temperature yesterday: 79 °F (at 12:50 PM)
Minimum temperature yesterday: 59 °F (at 7:20 AM)
Average temperature yesterday: 71 °F

Past Weeks' High & Low Weather Summary

 TemperatureHumidityPressure
High122 °F (Jun 22, 6:50 PM)100% (Jun 20, 5:20 PM)30.30 "Hg (Jun 20, 5:20 PM)
Low52 °F (Jun 22, 7:50 PM)26% (Jun 30, 1:20 PM)29.74 "Hg (Jun 22, 2:20 PM)
Average68 °F62%30.05 "Hg
* Reported Jun 19 7:20 PM — Jul 4 7:20 PM, Cambridge, Weather by CustomWeather, © 2015

Note: Actual official high and low records may vary slightly from our data, if they occured in-between our weather recording intervals... More about our weather records

Advertising

Cambridge weather history for previous 24 hours

 ConditionsComfort  
Time TempWeatherWind HumidityBarometerVisibility
7:20 PM
Sat, Jul 4
75 °FPassing clouds.13 mph47%30.07 "HgN/A
6:50 PM75 °FPassing clouds.13 mph47%30.07 "HgN/A
6:20 PM77 °FPassing clouds.12 mph44%30.07 "HgN/A
5:50 PM79 °FPassing clouds.14 mph45%30.07 "HgN/A
5:20 PM81 °FPassing clouds.15 mph45%30.07 "HgN/A
4:50 PM81 °FPassing clouds.15 mph48%30.07 "HgN/A
4:20 PM81 °FPassing clouds.13 mph48%30.07 "HgN/A
3:50 PM79 °FPassing clouds.15 mph51%30.07 "HgN/A
3:20 PM81 °FPassing clouds.15 mph51%30.07 "HgN/A
2:50 PM79 °FPassing clouds.13 mph54%30.07 "HgN/A
2:20 PM79 °FPassing clouds.13 mph54%30.07 "HgN/A
1:50 PM77 °FPassing clouds.16 mph57%30.07 "HgN/A
1:20 PM77 °FPassing clouds.16 mph57%30.04 "HgN/A
12:50 PM77 °FPassing clouds.16 mph57%30.04 "HgN/A
12:20 PM77 °FPassing clouds.17 mph57%30.04 "HgN/A
11:50 AM75 °FPassing clouds.15 mph61%30.04 "HgN/A
11:20 AM75 °FPassing clouds.16 mph61%30.04 "HgN/A
10:50 AM73 °FPassing clouds.14 mph69%30.01 "Hg6 mi
10:20 AM72 °FClear.12 mph78%30.01 "Hg5 mi
9:50 AM72 °FPassing clouds.10 mph78%30.01 "Hg4 mi
9:20 AM72 °FScattered clouds.12 mph78%30.01 "Hg4 mi
8:50 AM70 °FScattered clouds.12 mph88%30.01 "Hg4 mi
8:20 AM70 °FHaze.10 mph94%29.98 "Hg3 mi
7:50 AM70 °FHaze.7 mph94%29.98 "Hg3 mi
Weather by CustomWeather, © 2015

See weather overviewHow to use our weather pages